Airfield :
LOGIN :

Register | Disclaimer

   EN    FR    IT 

 










Legend :    VFR   Marginal VFR   IFR   Intensive IFR   Very Intensive IFR
Visi :
Ceiling :
>= 8 km
>= 3000ft
5 to 8 km
1000 to 3000 ft
1500m to 5 km
500 to 1000 ft
800 to 1500m
200 to 500 ft
< 800m
< 200 ft
Symbols :   Thunderstorms  Fog  Heavy snow  Heavy precipitations  Wind > 20 kt
SIGMETs :     Misc.  Thunderstorms  Icing  Turbulence  Mountain Waves  Volcanic Ashes







- Airport Elevation : 989 ft
- IATA code : TRN


LIMF - Torino Caselle

CURRENT METAR :
  • 270420Z 25002KT CAVOK 25/20 Q1022

EXPIRED METARs :
  • 270350Z 23004KT CAVOK 24/20 Q1023
  • 270320Z 23003KT CAVOK 24/20 Q1023
  • 270250Z VRB02KT CAVOK 24/20 Q1023
  • 270220Z 28003KT CAVOK 24/21 Q1023
  • 270150Z VRB01KT CAVOK 24/21 Q1023

TAF TAF LIMF
Valid from the 27 at 00:00 until the 28 at 00:00 UTC


262300Z 2700/2724 VRB05KT CAVOK
No reported NOTAMs for that airfield.



MET'MAP, your aeronautical weather chart ! - Copyright ORBIFLY December 2007 - Disclaimer

ORBIFLY MET'MAP TEAM :

Programming & Development : Alexandra Zaïnal
Concept & Development : Baudouin d'Aumeries
Co-Development & Prog : Marc-Olivier Méhu
Technical & hardware support : Manuel Goepfert

Contact : metmap@orbifly.com




SOURCES & CREDITS :

   NOAA